Regional Weather Roundup
Issued by NWS Sterling, VA

Home | Current Version | Previous Version | Text Only | Print | Product List | Glossary Off
Versions: 1 2 3 4 5 6 7 8 9 10 11 12 13 14 15 16 17 18 19 20 21 22 23 24 25 26 27 28 29 30 31 32 33 34 35 36 37 38 39 40 41 42 43 44 45 46 47 48 49 50

000
ASUS41 KLWX 292210
RWRLWX

REGIONAL WEATHER ROUNDUP
NATIONAL WEATHER SERVICE BALTIMORE MD/WASHINGTON DC
600 PM EDT FRI AUG 29 2014

Note: "FAIR" indicates few or no clouds below 12,000 feet
with no significant weather and/or obstructions to visibility.
 TC=TEMPERATURE CELSIUS

 * =Non NWS site. Station does not report precipitation (e.g. rain,
    snow, etc.), thunder, or fog.

DCZ001-MDZ009-015-VAZ040>042-051-053>054-292300-
WASHINGTON METRO
  /KDAA//-FT BELVOIR

CITY           SKY/WX    TMP DP  RH WIND       PRES   REMARKS
WASHINGTON NAT PTSUNNY   81  57  43 E10       30.15S
DULLES         MOSUNNY   77  57  50 W6        30.15S
ANDREWS AFB    SUNNY     75  54  48 E8        30.16R
QUANTICO       SUNNY     80  57  45 CALM      30.15S
COLLEGE PARK*  SUNNY     79  52  38 SE5       30.16R
LEESBURG*      SUNNY     81  61  50 W5        30.16S
MANASSAS*      SUNNY     79  61  53 SE7       30.15S
GAITHERSBURG*  SUNNY     75  55  50 E3        30.20R

$$

MDZ006>007-011-014-292300-
BALTIMORE METRO

CITY           SKY/WX    TMP DP  RH WIND       PRES   REMARKS
BWI AIRPORT    PTSUNNY   76  51  41 E9        30.17R
MD SCIENCE CTR   N/A     76  52  43 MISG      30.18R
MARTIN STATE   MOSUNNY   77  55  47 CALM      30.18S
ANNAPOLIS      SUNNY     75  55  49 E6        30.17R
FORT MEADE*    SUNNY     73  52  46 SE9       30.19R

$$

MDZ012-015-019>023-292300-
MARYLAND EASTERN SHORE

CITY           SKY/WX    TMP DP  RH WIND       PRES   REMARKS
OCEAN CITY     SUNNY     74  61  63 E12       30.17S
SALISBURY      SUNNY     78  58  49 E8        30.16S
BAY BRIDGE AP*   N/A     75  54  46 NW5       30.17R
CAMBRIDGE*     SUNNY     79  54  41 CALM      30.16R
EASTON*        SUNNY     81  59  47 MISG      30.19S

$$

MDZ017>025-292300-
SOUTHERN MARYLAND

CITY           SKY/WX    TMP DP  RH WIND       PRES   REMARKS
PATUXENT RIVER MOSUNNY   77  52  41 CALM      30.16R
ST INIGOES     SUNNY     76  54  46 SE6       30.15S
LEONARDTOWN*   SUNNY     77  52  41 NE3       30.18R

$$

MDZ003>005-292300-
NORTH CENTRAL MARYLAND

CITY           SKY/WX    TMP DP  RH WIND       PRES   REMARKS
FREDERICK*     SUNNY     79  59  50 CALM      30.18
HAGERSTOWN APT SUNNY     76  53  44 E7        30.16R
WESTMINSTER*   SUNNY     79  52  38 SE5       30.18R

$$

MDZ501>502-292300-
WESTERN MARYLAND

CITY           SKY/WX    TMP DP  RH WIND       PRES   REMARKS
OAKLAND*       SUNNY     72  57  60 SE7       30.20S
CUMBERLAND*    SUNNY     86  52  30 E7        30.15S

$$

VAZ025>031-292300-
SHENANDOAH VALLEY

CITY           SKY/WX    TMP DP  RH WIND       PRES   REMARKS
WINCHESTER*    MOSUNNY   77  57  50 E6        30.15S
STAUNTON*      SUNNY     79  59  49 S9        30.17R

$$

WVZ021-048>050-054>055-292300-
EASTERN WEST VIRGINIA PANHANDLE

CITY           SKY/WX    TMP DP  RH WIND       PRES   REMARKS
MARTINSBURG    SUNNY     77  54  44 S5        30.16R
PETERSBURG*    NOT AVBL

$$

VAZ036>039-050-292300-
CENTRAL FOOTHILLS

CITY           SKY/WX    TMP DP  RH WIND       PRES   REMARKS
CHARLOTTESVILL SUNNY     79  60  52 S6        30.14S
ORANGE*        SUNNY     79  59  50 SE5       30.16S

$$

VAZ055>057-292300-
NORTH AND CENTRAL PIEDMONT

CITY           SKY/WX    TMP DP  RH WIND       PRES   REMARKS
FREDERICKSBRG* SUNNY     81  60  49 NE7       30.13S
STAFFORD*      SUNNY     79  58  49 CALM      30.18S

$$

NCZ024-NYZ072-PAZ021-071-VAZ022-071-292300-
OTHER REGIONAL OBSERVATIONS

CITY           SKY/WX    TMP DP  RH WIND       PRES   REMARKS
NEW YORK CITY  SUNNY     74  52  46 VRB5      30.21R
PHILADELPHIA   PTSUNNY   78  51  38 S6        30.17R
PITTSBURGH     MOSUNNY   78  48  34 S6        30.11S
ROANOKE        MOSUNNY   77  63  61 SE7       30.17S
RICHMOND       MOSUNNY   83  61  47 SE5       30.13S
RALEIGH        CLOUDY    80  70  71 E9        30.13R

$$

ANZ530>537-292300-
MARINE OBSERVATIONS

STATION/POSITION TIME  TEMP    WIND        PRES
                       AIR SEA DIR/SP/G
                 (UTC) (F)     (DEG/KT/KT) (MB)
THOMAS PT LIGHT  2200   73 78   30/  4/  5 1022.5R
BALT KEY BRIDGE  2200   81     130/  5/  7 1021.4R
COVE POINT       2200   75      20/  5/  6 1021.1S
LEWISETTA        2200   75 79  110/ 10/ 11 1020.8S
SOLOMONS ISLAND  2200      81                N/A
PINEY POINT      2200          140/  9/ 11   N/A

$$



USA.gov is the U.S. government's official web portal to all federal, state and local government web resources and services.